Location: Ch�risy
(50.2331°N, 2.9131°E)
Time: 19:28:38
(UTC+00:00)

Cosmos 923 Rocket - Pass Details

Date: 17 January 2021
Orbit: 758 x 785 km, 74.0° (Epoch: 27 February)

Event Time Altitude Azimuth Distance (km) Brightness Sun altitude
Rises 18:13:36 0° 339° (NNW) 3,290 7.4 -18.0°
Reaches altitude 10° 18:16:08 10° 346° (NNW) 2,357 6.6 -18.4°
Maximum altitude 18:21:13 42° 57° (ENE) 1,122 4.4 -19.2°
Enters shadow 18:22:16 37° 86° (E) 1,200 4.5 -19.4°
